Anzahl Datensätze: 284
min. Temperatur: 7.7 °C
max. Temperatur: 9.4 °C
max. Windgeschwindigkeit: 18.7 km/h
Niederschlagsumme: 6.2 mm
| Datum |
Zeit |
Temp °C |
Feuchte % |
Taupunkt °C |
Luftdruck hPa |
Wind km/h |
Windrichtung |
Strahlung w/m² |
Niederschlag mm |
|---|---|---|---|---|---|---|---|---|---|
| 17.04.2025 | 00:01 | 9.1 | 95 | 8.3 | 1009.0 | 6.1 | WSW | 0 | 0.0 |
| 17.04.2025 | 00:06 | 9.0 | 95 | 8.2 | 1008.8 | 6.1 | W | 0 | 0.0 |
| 17.04.2025 | 00:11 | 9.0 | 95 | 8.2 | 1009.1 | 8.3 | SSW | 0 | 0.0 |
| 17.04.2025 | 00:16 | 9.0 | 95 | 8.2 | 1008.9 | 6.1 | SSW | 0 | 0.0 |
| 17.04.2025 | 00:21 | 8.9 | 95 | 8.1 | 1008.9 | 4.3 | SSW | 0 | 0.0 |
| 17.04.2025 | 00:26 | 8.9 | 95 | 8.1 | 1008.8 | 10.4 | SW | 0 | 0.0 |
| 17.04.2025 | 00:31 | 9.0 | 95 | 8.2 | 1008.9 | 6.1 | SW | 0 | 0.0 |
| 17.04.2025 | 00:36 | 9.0 | 95 | 8.2 | 1009.0 | 4.3 | SW | 0 | 0.0 |
| 17.04.2025 | 00:41 | 8.9 | 95 | 8.1 | 1009.0 | 10.4 | SW | 0 | 0.0 |
| 17.04.2025 | 00:46 | 8.9 | 95 | 8.1 | 1009.0 | 4.3 | SSW | 0 | 0.0 |
| 17.04.2025 | 00:51 | 8.9 | 95 | 8.1 | 1008.8 | 10.4 | SW | 0 | 0.0 |
| 17.04.2025 | 00:56 | 8.9 | 95 | 8.1 | 1008.8 | 1.8 | WSW | 0 | 0.0 |
| 17.04.2025 | 01:01 | 8.9 | 95 | 8.1 | 1008.9 | 6.1 | WSW | 0 | 0.0 |
| 17.04.2025 | 01:06 | 8.9 | 95 | 8.1 | 1008.9 | 4.3 | SW | 0 | 0.0 |
| 17.04.2025 | 01:11 | 8.9 | 95 | 8.1 | 1008.9 | 12.6 | SW | 0 | 0.0 |
| 17.04.2025 | 01:16 | 8.9 | 95 | 8.1 | 1008.9 | 10.4 | SW | 0 | 0.0 |
| 17.04.2025 | 01:21 | 8.9 | 95 | 8.1 | 1008.7 | 8.3 | WSW | 0 | 0.0 |
| 17.04.2025 | 01:26 | 8.9 | 95 | 8.1 | 1008.8 | 6.1 | SW | 0 | 0.0 |
| 17.04.2025 | 01:31 | 8.9 | 95 | 8.1 | 1008.8 | 4.3 | SW | 0 | 0.0 |
| 17.04.2025 | 01:36 | 8.9 | 95 | 8.1 | 1008.7 | 4.3 | SW | 0 | 0.0 |
| 17.04.2025 | 01:41 | 8.9 | 95 | 8.1 | 1008.6 | 6.1 | WSW | 0 | 0.0 |
| 17.04.2025 | 01:46 | 8.9 | 95 | 8.1 | 1008.5 | 1.8 | W | 0 | 0.0 |
| 17.04.2025 | 01:51 | 8.9 | 95 | 8.1 | 1008.5 | 4.3 | W | 0 | 0.0 |
| 17.04.2025 | 01:56 | 8.9 | 95 | 8.1 | 1008.6 | 12.6 | SSW | 0 | 0.0 |
| 17.04.2025 | 02:01 | 8.9 | 95 | 8.1 | 1008.6 | 4.3 | WSW | 0 | 0.0 |
| 17.04.2025 | 02:06 | 8.9 | 95 | 8.1 | 1008.3 | 6.1 | WSW | 0 | 0.0 |
| 17.04.2025 | 02:11 | 8.9 | 95 | 8.1 | 1008.1 | 6.1 | W | 0 | 0.0 |
| 17.04.2025 | 02:17 | 8.8 | 95 | 8.0 | 1008.0 | 8.3 | W | 0 | 0.0 |
| 17.04.2025 | 02:22 | 8.8 | 95 | 8.0 | 1007.8 | 6.1 | W | 0 | 0.0 |
| 17.04.2025 | 02:27 | 8.8 | 95 | 8.0 | 1007.8 | 6.1 | WNW | 0 | 0.0 |
| 17.04.2025 | 02:32 | 8.8 | 95 | 8.0 | 1007.9 | 6.1 | SW | 0 | 0.0 |
| 17.04.2025 | 02:37 | 8.8 | 95 | 8.0 | 1007.9 | 0.0 | SW | 0 | 0.0 |
| 17.04.2025 | 02:42 | 8.8 | 95 | 8.0 | 1007.9 | 4.3 | SW | 0 | 0.0 |
| 17.04.2025 | 02:47 | 8.8 | 95 | 8.0 | 1008.0 | 4.3 | SW | 0 | 0.0 |
| 17.04.2025 | 02:52 | 8.8 | 95 | 8.0 | 1008.0 | 4.3 | SW | 0 | 0.0 |
| 17.04.2025 | 02:57 | 8.8 | 95 | 8.0 | 1008.1 | 1.8 | SW | 0 | 0.0 |
| 17.04.2025 | 03:02 | 8.8 | 95 | 8.0 | 1008.0 | 6.1 | SW | 0 | 0.0 |
| 17.04.2025 | 03:07 | 8.8 | 95 | 8.0 | 1008.2 | 6.1 | WSW | 0 | 0.0 |
| 17.04.2025 | 03:12 | 8.8 | 95 | 8.0 | 1008.3 | 6.1 | W | 0 | 0.0 |
| 17.04.2025 | 03:17 | 8.8 | 95 | 8.0 | 1008.4 | 4.3 | W | 0 | 0.0 |
| 17.04.2025 | 03:22 | 8.8 | 95 | 8.0 | 1008.4 | 4.3 | W | 0 | 0.0 |
| 17.04.2025 | 03:27 | 8.8 | 94 | 7.9 | 1008.4 | 4.3 | W | 0 | 0.0 |
| 17.04.2025 | 03:32 | 8.7 | 94 | 7.8 | 1008.4 | 0.0 | W | 0 | 0.0 |
| 17.04.2025 | 03:37 | 8.7 | 94 | 7.8 | 1008.3 | 1.8 | W | 0 | 0.0 |
| 17.04.2025 | 03:42 | 8.7 | 94 | 7.8 | 1008.3 | 4.3 | WNW | 0 | 0.0 |
| 17.04.2025 | 03:47 | 8.7 | 94 | 7.8 | 1008.4 | 4.3 | WNW | 0 | 0.0 |
| 17.04.2025 | 03:52 | 8.6 | 94 | 7.7 | 1008.2 | 4.3 | WNW | 0 | 0.0 |
| 17.04.2025 | 03:57 | 8.6 | 94 | 7.7 | 1008.1 | 6.1 | W | 0 | 0.0 |
| 17.04.2025 | 04:02 | 8.6 | 93 | 7.5 | 1008.1 | 4.3 | W | 0 | 0.0 |
| 17.04.2025 | 04:07 | 8.6 | 93 | 7.5 | 1008.1 | 8.3 | W | 0 | 0.0 |
| 17.04.2025 | 04:12 | 8.6 | 94 | 7.7 | 1007.9 | 6.1 | WNW | 0 | 0.0 |
| 17.04.2025 | 04:17 | 8.5 | 93 | 7.4 | 1007.7 | 8.3 | NW | 0 | 0.0 |
| 17.04.2025 | 04:22 | 8.4 | 94 | 7.5 | 1007.7 | 6.1 | WNW | 0 | 0.0 |
| 17.04.2025 | 04:27 | 8.4 | 94 | 7.5 | 1007.6 | 1.8 | W | 0 | 0.0 |
| 17.04.2025 | 04:32 | 8.4 | 94 | 7.5 | 1007.5 | 6.1 | W | 0 | 0.0 |
| 17.04.2025 | 04:37 | 8.3 | 94 | 7.4 | 1007.4 | 1.8 | WNW | 0 | 0.0 |
| 17.04.2025 | 04:42 | 8.3 | 94 | 7.4 | 1007.7 | 6.1 | W | 0 | 0.0 |
| 17.04.2025 | 04:47 | 8.3 | 94 | 7.4 | 1007.9 | 1.8 | WNW | 0 | 0.0 |
| 17.04.2025 | 04:52 | 8.3 | 94 | 7.4 | 1008.0 | 0.0 | W | 0 | 0.0 |
| 17.04.2025 | 04:57 | 8.2 | 94 | 7.3 | 1007.6 | 1.8 | WNW | 0 | 0.0 |
| 17.04.2025 | 05:02 | 8.2 | 94 | 7.3 | 1007.2 | 8.3 | NW | 0 | 0.0 |
| 17.04.2025 | 05:08 | 8.2 | 95 | 7.4 | 1007.4 | 4.3 | W | 0 | 0.0 |
| 17.04.2025 | 05:13 | 8.2 | 95 | 7.4 | 1007.8 | 0.0 | W | 0 | 0.0 |
| 17.04.2025 | 05:18 | 8.2 | 95 | 7.4 | 1007.6 | 0.0 | W | 0 | 0.0 |
| 17.04.2025 | 05:23 | 8.2 | 95 | 7.4 | 1007.3 | 4.3 | W | 0 | 0.0 |
| 17.04.2025 | 05:28 | 8.2 | 95 | 7.4 | 1007.4 | 0.0 | W | 0 | 0.0 |
| 17.04.2025 | 05:33 | 8.2 | 95 | 7.4 | 1007.3 | 0.0 | W | 0 | 0.0 |
| 17.04.2025 | 05:38 | 8.2 | 95 | 7.4 | 1007.1 | 0.0 | W | 0 | 0.0 |
| 17.04.2025 | 05:43 | 8.2 | 95 | 7.4 | 1007.4 | 0.0 | W | 0 | 0.0 |
| 17.04.2025 | 05:48 | 8.2 | 95 | 7.4 | 1007.2 | 0.0 | W | 0 | 0.0 |
| 17.04.2025 | 05:53 | 8.2 | 95 | 7.4 | 1007.3 | 0.0 | W | 0 | 0.0 |
| 17.04.2025 | 05:58 | 8.2 | 95 | 7.4 | 1007.1 | 0.0 | W | 0 | 0.0 |
| 17.04.2025 | 06:03 | 8.2 | 95 | 7.4 | 1007.5 | 4.3 | W | 0 | 0.0 |
| 17.04.2025 | 06:08 | 8.2 | 95 | 7.4 | 1007.1 | 4.3 | W | 0 | 0.0 |
| 17.04.2025 | 06:13 | 8.2 | 95 | 7.4 | 1006.9 | 4.3 | W | 0 | 0.0 |
| 17.04.2025 | 06:18 | 8.1 | 95 | 7.3 | 1006.9 | 4.3 | WNW | 0 | 0.0 |
| 17.04.2025 | 06:23 | 8.0 | 95 | 7.2 | 1007.1 | 1.8 | WNW | 0 | 0.0 |
| 17.04.2025 | 06:28 | 8.0 | 95 | 7.2 | 1007.2 | 8.3 | W | 0 | 0.0 |
| 17.04.2025 | 06:33 | 8.0 | 95 | 7.2 | 1007.4 | 4.3 | WNW | 0 | 0.0 |
| 17.04.2025 | 06:38 | 8.0 | 95 | 7.2 | 1007.2 | 0.0 | WNW | 0 | 0.0 |
| 17.04.2025 | 06:43 | 8.0 | 95 | 7.2 | 1007.4 | 6.1 | WNW | 0 | 0.2 |
| 17.04.2025 | 06:48 | 8.0 | 95 | 7.2 | 1007.5 | 4.3 | WNW | 0 | 0.2 |
| 17.04.2025 | 06:53 | 8.0 | 95 | 7.2 | 1007.6 | 0.0 | WNW | 0 | 0.2 |
| 17.04.2025 | 06:58 | 8.0 | 96 | 7.4 | 1007.7 | 1.8 | WNW | 0 | 0.2 |
| 17.04.2025 | 07:13 | 7.9 | 96 | 7.3 | 1007.4 | 4.3 | WNW | 5 | 0.2 |
| 17.04.2025 | 07:18 | 7.9 | 96 | 7.3 | 1007.3 | 0.0 | WNW | 9 | 0.2 |
| 17.04.2025 | 07:23 | 7.9 | 96 | 7.3 | 1007.4 | 0.0 | WNW | 9 | 0.2 |
| 17.04.2025 | 07:28 | 8.0 | 96 | 7.4 | 1007.1 | 4.3 | NW | 12 | 0.2 |
| 17.04.2025 | 07:33 | 7.9 | 96 | 7.3 | 1007.1 | 4.3 | W | 12 | 0.2 |
| 17.04.2025 | 07:38 | 7.9 | 96 | 7.3 | 1007.1 | 4.3 | NNW | 12 | 0.2 |
| 17.04.2025 | 07:43 | 8.0 | 96 | 7.4 | 1006.8 | 1.8 | NNW | 18 | 0.2 |
| 17.04.2025 | 07:48 | 8.0 | 96 | 7.4 | 1006.8 | 4.3 | NNW | 18 | 0.2 |
| 17.04.2025 | 07:54 | 8.0 | 96 | 7.4 | 1007.0 | 0.0 | NNW | 18 | 0.2 |
| 17.04.2025 | 07:59 | 7.9 | 96 | 7.3 | 1007.0 | 4.3 | NNW | 18 | 0.2 |
| 17.04.2025 | 08:04 | 7.9 | 96 | 7.3 | 1007.0 | 0.0 | WNW | 16 | 0.4 |
| 17.04.2025 | 08:09 | 8.0 | 96 | 7.4 | 1007.0 | 4.3 | WNW | 19 | 0.4 |
| 17.04.2025 | 08:14 | 8.0 | 96 | 7.4 | 1007.1 | 0.0 | WNW | 14 | 0.4 |
| 17.04.2025 | 08:19 | 8.0 | 96 | 7.4 | 1007.1 | 4.3 | NW | 14 | 0.4 |
| 17.04.2025 | 08:24 | 7.9 | 96 | 7.3 | 1006.9 | 4.3 | NNW | 14 | 0.4 |
| 17.04.2025 | 08:29 | 7.9 | 96 | 7.3 | 1007.1 | 0.0 | WNW | 11 | 0.4 |
| 17.04.2025 | 08:34 | 7.9 | 96 | 7.3 | 1007.2 | 0.0 | WNW | 12 | 0.4 |
| 17.04.2025 | 08:39 | 8.0 | 96 | 7.4 | 1007.2 | 6.1 | WNW | 14 | 0.4 |
| 17.04.2025 | 08:44 | 8.0 | 96 | 7.4 | 1007.3 | 0.0 | WNW | 18 | 0.4 |
| 17.04.2025 | 08:49 | 8.0 | 96 | 7.4 | 1007.3 | 0.0 | WNW | 23 | 0.4 |
| 17.04.2025 | 08:54 | 7.9 | 96 | 7.3 | 1007.3 | 0.0 | WNW | 23 | 0.4 |
| 17.04.2025 | 08:59 | 8.1 | 96 | 7.5 | 1007.3 | 0.0 | WNW | 25 | 0.6 |
| 17.04.2025 | 09:04 | 8.1 | 96 | 7.5 | 1007.4 | 0.0 | WNW | 25 | 0.6 |
| 17.04.2025 | 09:09 | 8.1 | 96 | 7.5 | 1007.5 | 0.0 | WNW | 25 | 0.6 |
| 17.04.2025 | 09:14 | 8.1 | 96 | 7.5 | 1007.5 | 0.0 | WNW | 26 | 0.6 |
| 17.04.2025 | 09:19 | 8.1 | 96 | 7.5 | 1007.5 | 4.3 | W | 33 | 0.6 |
| 17.04.2025 | 09:24 | 8.2 | 96 | 7.6 | 1007.3 | 0.0 | W | 51 | 0.6 |
| 17.04.2025 | 09:29 | 8.3 | 96 | 7.7 | 1007.2 | 4.3 | W | 62 | 0.8 |
| 17.04.2025 | 09:34 | 8.2 | 96 | 7.6 | 1007.2 | 4.3 | NW | 42 | 0.8 |
| 17.04.2025 | 09:39 | 8.3 | 96 | 7.7 | 1007.2 | 1.8 | NW | 37 | 0.8 |
| 17.04.2025 | 09:44 | 8.2 | 96 | 7.6 | 1007.2 | 10.4 | WNW | 86 | 0.8 |
| 17.04.2025 | 09:49 | 8.3 | 96 | 7.7 | 1007.2 | 6.1 | NW | 84 | 0.8 |
| 17.04.2025 | 09:54 | 8.3 | 96 | 7.7 | 1007.2 | 6.1 | NW | 72 | 1.0 |
| 17.04.2025 | 09:59 | 8.3 | 96 | 7.7 | 1007.1 | 0.0 | WNW | 74 | 1.0 |
| 17.04.2025 | 10:04 | 8.4 | 96 | 7.8 | 1007.4 | 4.3 | NW | 58 | 1.0 |
| 17.04.2025 | 10:09 | 8.3 | 96 | 7.7 | 1007.3 | 6.1 | NNW | 63 | 1.0 |
| 17.04.2025 | 10:14 | 8.3 | 96 | 7.7 | 1007.6 | 6.1 | WNW | 54 | 1.0 |
| 17.04.2025 | 10:19 | 8.3 | 96 | 7.7 | 1007.5 | 4.3 | NNW | 74 | 1.0 |
| 17.04.2025 | 10:24 | 8.3 | 96 | 7.7 | 1007.4 | 6.1 | NW | 93 | 1.0 |
| 17.04.2025 | 10:29 | 8.4 | 96 | 7.8 | 1007.5 | 6.1 | NW | 81 | 1.2 |
| 17.04.2025 | 10:34 | 8.4 | 96 | 7.8 | 1007.5 | 4.3 | NW | 104 | 1.2 |
| 17.04.2025 | 10:39 | 8.4 | 96 | 7.8 | 1007.4 | 8.3 | NNW | 88 | 1.2 |
| 17.04.2025 | 10:44 | 8.6 | 96 | 8.0 | 1007.3 | 12.6 | WNW | 137 | 1.2 |
| 17.04.2025 | 10:50 | 8.7 | 96 | 8.1 | 1007.5 | 4.3 | NW | 70 | 1.2 |
| 17.04.2025 | 10:55 | 8.7 | 96 | 8.1 | 1007.5 | 6.1 | NW | 100 | 1.2 |
| 17.04.2025 | 11:00 | 8.6 | 96 | 8.0 | 1007.5 | 8.3 | WNW | 79 | 1.2 |
| 17.04.2025 | 11:05 | 8.6 | 95 | 7.8 | 1007.6 | 1.8 | NW | 60 | 1.2 |
| 17.04.2025 | 11:10 | 8.6 | 96 | 8.0 | 1007.6 | 6.1 | NW | 56 | 1.2 |
| 17.04.2025 | 11:15 | 8.6 | 95 | 7.8 | 1007.5 | 6.1 | NW | 86 | 1.2 |
| 17.04.2025 | 11:20 | 8.6 | 96 | 8.0 | 1007.4 | 4.3 | NW | 93 | 1.2 |
| 17.04.2025 | 11:25 | 8.6 | 96 | 8.0 | 1007.3 | 6.1 | WNW | 109 | 1.4 |
| 17.04.2025 | 11:30 | 8.7 | 96 | 8.1 | 1007.1 | 6.1 | W | 130 | 1.4 |
| 17.04.2025 | 11:35 | 8.7 | 96 | 8.1 | 1007.1 | 6.1 | WNW | 141 | 1.4 |
| 17.04.2025 | 11:40 | 8.8 | 96 | 8.2 | 1007.0 | 1.8 | NW | 134 | 1.4 |
| 17.04.2025 | 11:45 | 8.9 | 96 | 8.3 | 1007.0 | 4.3 | WNW | 70 | 1.4 |
| 17.04.2025 | 11:50 | 8.8 | 96 | 8.2 | 1007.1 | 4.3 | WNW | 69 | 1.4 |
| 17.04.2025 | 11:55 | 8.7 | 95 | 7.9 | 1007.1 | 4.3 | WNW | 63 | 1.4 |
| 17.04.2025 | 12:00 | 8.8 | 95 | 8.0 | 1007.0 | 1.8 | WNW | 97 | 1.4 |
| 17.04.2025 | 12:05 | 8.9 | 95 | 8.1 | 1007.1 | 4.3 | NW | 88 | 1.4 |
| 17.04.2025 | 12:10 | 8.8 | 95 | 8.0 | 1007.3 | 6.1 | N | 98 | 1.4 |
| 17.04.2025 | 12:15 | 8.8 | 96 | 8.2 | 1007.2 | 4.3 | NNW | 90 | 1.4 |
| 17.04.2025 | 12:25 | 8.8 | 95 | 8.0 | 1007.3 | 6.1 | W | 72 | 1.4 |
| 17.04.2025 | 12:30 | 8.8 | 95 | 8.0 | 1007.4 | 1.8 | W | 74 | 1.6 |
| 17.04.2025 | 12:35 | 8.9 | 95 | 8.1 | 1007.3 | 6.1 | WNW | 81 | 1.6 |
| 17.04.2025 | 12:40 | 8.9 | 95 | 8.1 | 1007.2 | 0.0 | W | 58 | 1.6 |
| 17.04.2025 | 12:45 | 8.9 | 95 | 8.1 | 1007.2 | 6.1 | W | 86 | 1.6 |
| 17.04.2025 | 12:50 | 8.9 | 95 | 8.1 | 1007.1 | 6.1 | WSW | 76 | 1.6 |
| 17.04.2025 | 12:55 | 8.9 | 95 | 8.1 | 1007.3 | 4.3 | W | 65 | 1.6 |
| 17.04.2025 | 13:00 | 8.9 | 95 | 8.1 | 1007.4 | 1.8 | W | 62 | 1.6 |
| 17.04.2025 | 13:05 | 8.9 | 95 | 8.1 | 1007.5 | 4.3 | WSW | 62 | 1.6 |
| 17.04.2025 | 13:10 | 8.9 | 95 | 8.1 | 1007.5 | 1.8 | SW | 63 | 1.6 |
| 17.04.2025 | 13:15 | 9.1 | 95 | 8.3 | 1007.5 | 4.3 | SW | 67 | 1.6 |
| 17.04.2025 | 13:20 | 9.1 | 95 | 8.3 | 1007.6 | 0.0 | SW | 69 | 1.6 |
| 17.04.2025 | 13:25 | 9.1 | 95 | 8.3 | 1007.7 | 4.3 | SW | 67 | 1.6 |
| 17.04.2025 | 13:30 | 9.1 | 96 | 8.5 | 1007.8 | 4.3 | SW | 72 | 1.6 |
| 17.04.2025 | 13:36 | 9.2 | 96 | 8.6 | 1007.6 | 4.3 | WSW | 88 | 1.6 |
| 17.04.2025 | 13:41 | 9.2 | 95 | 8.4 | 1007.5 | 4.3 | W | 93 | 1.8 |
| 17.04.2025 | 13:46 | 9.2 | 95 | 8.4 | 1007.2 | 4.3 | WNW | 97 | 1.8 |
| 17.04.2025 | 13:51 | 9.2 | 96 | 8.6 | 1007.1 | 6.1 | WNW | 111 | 1.8 |
| 17.04.2025 | 13:56 | 9.2 | 96 | 8.6 | 1007.2 | 8.3 | W | 118 | 1.8 |
| 17.04.2025 | 14:01 | 9.2 | 95 | 8.4 | 1007.1 | 0.0 | W | 107 | 2.0 |
| 17.04.2025 | 14:06 | 9.3 | 95 | 8.5 | 1007.3 | 0.0 | W | 63 | 2.0 |
| 17.04.2025 | 14:11 | 9.3 | 95 | 8.5 | 1007.5 | 4.3 | W | 79 | 2.0 |
| 17.04.2025 | 14:16 | 9.2 | 95 | 8.4 | 1007.6 | 0.0 | W | 93 | 2.0 |
| 17.04.2025 | 14:21 | 9.3 | 95 | 8.5 | 1007.5 | 0.0 | W | 86 | 2.0 |
| 17.04.2025 | 14:26 | 9.3 | 95 | 8.5 | 1007.4 | 8.3 | WNW | 84 | 2.0 |
| 17.04.2025 | 14:31 | 9.3 | 95 | 8.5 | 1007.5 | 6.1 | W | 90 | 2.2 |
| 17.04.2025 | 14:36 | 9.3 | 95 | 8.5 | 1007.4 | 4.3 | W | 90 | 2.2 |
| 17.04.2025 | 14:41 | 9.4 | 95 | 8.6 | 1007.3 | 8.3 | WNW | 97 | 2.2 |
| 17.04.2025 | 14:46 | 9.4 | 95 | 8.6 | 1007.5 | 6.1 | W | 90 | 2.2 |
| 17.04.2025 | 14:51 | 9.4 | 95 | 8.6 | 1007.5 | 4.3 | WNW | 77 | 2.2 |
| 17.04.2025 | 14:56 | 9.4 | 95 | 8.6 | 1007.5 | 14.4 | WNW | 81 | 2.2 |
| 17.04.2025 | 15:01 | 9.4 | 95 | 8.6 | 1007.6 | 6.1 | WNW | 70 | 2.2 |
| 17.04.2025 | 15:06 | 9.4 | 95 | 8.6 | 1007.5 | 8.3 | WNW | 79 | 2.4 |
| 17.04.2025 | 15:11 | 9.4 | 95 | 8.6 | 1007.6 | 10.4 | WSW | 79 | 2.4 |
| 17.04.2025 | 15:16 | 9.4 | 95 | 8.6 | 1007.8 | 4.3 | NW | 62 | 2.4 |
| 17.04.2025 | 15:21 | 9.4 | 95 | 8.6 | 1007.9 | 4.3 | WNW | 46 | 2.4 |
| 17.04.2025 | 15:26 | 9.4 | 95 | 8.6 | 1007.8 | 8.3 | W | 44 | 2.4 |
| 17.04.2025 | 15:31 | 9.4 | 95 | 8.6 | 1007.9 | 6.1 | W | 62 | 2.4 |
| 17.04.2025 | 15:36 | 9.3 | 95 | 8.5 | 1007.7 | 4.3 | WNW | 86 | 2.4 |
| 17.04.2025 | 15:41 | 9.4 | 95 | 8.6 | 1007.7 | 16.9 | W | 86 | 2.4 |
| 17.04.2025 | 15:46 | 9.3 | 95 | 8.5 | 1007.8 | 6.1 | W | 69 | 2.6 |
| 17.04.2025 | 15:51 | 9.3 | 95 | 8.5 | 1007.8 | 8.3 | WNW | 63 | 2.6 |
| 17.04.2025 | 15:56 | 9.2 | 95 | 8.4 | 1007.9 | 6.1 | WNW | 49 | 2.6 |
| 17.04.2025 | 16:01 | 9.2 | 95 | 8.4 | 1007.9 | 4.3 | WNW | 54 | 2.6 |
| 17.04.2025 | 16:06 | 9.2 | 95 | 8.4 | 1008.0 | 6.1 | WNW | 51 | 2.6 |
| 17.04.2025 | 16:11 | 9.1 | 95 | 8.3 | 1008.0 | 6.1 | WNW | 56 | 2.6 |
| 17.04.2025 | 16:16 | 9.2 | 95 | 8.4 | 1008.1 | 1.8 | W | 54 | 2.6 |
| 17.04.2025 | 16:21 | 9.2 | 95 | 8.4 | 1008.0 | 4.3 | W | 62 | 2.8 |
| 17.04.2025 | 16:26 | 9.2 | 95 | 8.4 | 1008.0 | 6.1 | WNW | 51 | 2.8 |
| 17.04.2025 | 16:31 | 9.2 | 95 | 8.4 | 1007.9 | 8.3 | NW | 60 | 2.8 |
| 17.04.2025 | 16:36 | 9.2 | 95 | 8.4 | 1008.1 | 1.8 | WNW | 44 | 2.8 |
| 17.04.2025 | 16:42 | 9.1 | 95 | 8.3 | 1008.3 | 8.3 | WNW | 42 | 2.8 |
| 17.04.2025 | 16:47 | 9.1 | 95 | 8.3 | 1008.3 | 6.1 | W | 35 | 2.8 |
| 17.04.2025 | 16:52 | 9.0 | 95 | 8.2 | 1008.5 | 12.6 | W | 30 | 2.8 |
| 17.04.2025 | 16:57 | 8.9 | 95 | 8.1 | 1008.5 | 6.1 | WNW | 32 | 2.8 |
| 17.04.2025 | 17:02 | 8.9 | 95 | 8.1 | 1008.5 | 1.8 | WSW | 35 | 2.8 |
| 17.04.2025 | 17:07 | 8.9 | 95 | 8.1 | 1008.5 | 8.3 | WNW | 40 | 2.8 |
| 17.04.2025 | 17:12 | 8.9 | 95 | 8.1 | 1008.5 | 8.3 | NW | 40 | 2.8 |
| 17.04.2025 | 17:17 | 8.9 | 95 | 8.1 | 1008.5 | 8.3 | W | 42 | 2.8 |
| 17.04.2025 | 17:22 | 8.8 | 95 | 8.0 | 1008.5 | 6.1 | WNW | 39 | 2.8 |
| 17.04.2025 | 17:27 | 8.8 | 95 | 8.0 | 1008.5 | 8.3 | WNW | 40 | 2.8 |
| 17.04.2025 | 17:32 | 8.8 | 95 | 8.0 | 1008.5 | 6.1 | WNW | 44 | 2.8 |
| 17.04.2025 | 17:37 | 8.8 | 95 | 8.0 | 1008.6 | 10.4 | NW | 40 | 2.8 |
| 17.04.2025 | 17:42 | 8.9 | 95 | 8.1 | 1008.6 | 4.3 | NW | 32 | 2.8 |
| 17.04.2025 | 17:47 | 8.8 | 95 | 8.0 | 1008.5 | 6.1 | WNW | 35 | 2.8 |
| 17.04.2025 | 17:52 | 8.8 | 95 | 8.0 | 1008.6 | 1.8 | WNW | 39 | 2.8 |
| 17.04.2025 | 17:57 | 8.8 | 94 | 7.9 | 1008.7 | 0.0 | WNW | 33 | 2.8 |
| 17.04.2025 | 18:02 | 8.9 | 95 | 8.1 | 1008.7 | 4.3 | NW | 28 | 2.8 |
| 17.04.2025 | 18:07 | 8.8 | 95 | 8.0 | 1008.8 | 1.8 | W | 26 | 2.8 |
| 17.04.2025 | 18:12 | 8.8 | 95 | 8.0 | 1008.8 | 6.1 | WNW | 25 | 2.8 |
| 17.04.2025 | 18:17 | 8.8 | 95 | 8.0 | 1008.7 | 6.1 | WNW | 21 | 2.8 |
| 17.04.2025 | 18:22 | 8.8 | 95 | 8.0 | 1008.7 | 8.3 | WNW | 26 | 3.0 |
| 17.04.2025 | 18:27 | 8.7 | 95 | 7.9 | 1008.9 | 6.1 | NW | 26 | 3.0 |
| 17.04.2025 | 18:32 | 8.7 | 95 | 7.9 | 1009.0 | 8.3 | WNW | 19 | 3.0 |
| 17.04.2025 | 18:37 | 8.7 | 95 | 7.9 | 1009.1 | 1.8 | WNW | 12 | 3.2 |
| 17.04.2025 | 18:42 | 8.7 | 95 | 7.9 | 1009.3 | 4.3 | W | 11 | 3.2 |
| 17.04.2025 | 18:47 | 8.7 | 95 | 7.9 | 1009.4 | 8.3 | WSW | 14 | 3.4 |
| 17.04.2025 | 18:52 | 8.6 | 95 | 7.8 | 1009.5 | 8.3 | WSW | 16 | 3.8 |
| 17.04.2025 | 18:57 | 8.6 | 95 | 7.8 | 1009.7 | 8.3 | WSW | 19 | 4.2 |
| 17.04.2025 | 19:02 | 8.6 | 95 | 7.8 | 1009.7 | 6.1 | W | 19 | 4.4 |
| 17.04.2025 | 19:07 | 8.6 | 95 | 7.8 | 1009.8 | 4.3 | W | 16 | 4.6 |
| 17.04.2025 | 19:12 | 8.5 | 95 | 7.7 | 1009.9 | 1.8 | W | 14 | 4.8 |
| 17.04.2025 | 19:17 | 8.6 | 95 | 7.8 | 1010.0 | 4.3 | W | 16 | 4.8 |
| 17.04.2025 | 19:22 | 8.4 | 95 | 7.6 | 1010.0 | 6.1 | W | 18 | 5.0 |
| 17.04.2025 | 19:27 | 8.4 | 95 | 7.6 | 1010.0 | 8.3 | WSW | 19 | 5.2 |
| 17.04.2025 | 19:33 | 8.4 | 95 | 7.6 | 1010.1 | 6.1 | W | 25 | 5.2 |
| 17.04.2025 | 19:38 | 8.4 | 95 | 7.6 | 1010.0 | 4.3 | WNW | 19 | 5.2 |
| 17.04.2025 | 19:43 | 8.4 | 95 | 7.6 | 1009.8 | 8.3 | NW | 12 | 5.4 |
| 17.04.2025 | 19:48 | 8.3 | 95 | 7.5 | 1009.9 | 4.3 | WNW | 9 | 5.4 |
| 17.04.2025 | 19:53 | 8.3 | 95 | 7.5 | 1009.6 | 8.3 | NW | 7 | 5.4 |
| 17.04.2025 | 19:58 | 8.2 | 95 | 7.4 | 1009.2 | 18.7 | NW | 9 | 5.6 |
| 17.04.2025 | 20:03 | 8.2 | 95 | 7.4 | 1009.3 | 14.4 | NW | 7 | 5.8 |
| 17.04.2025 | 20:08 | 8.1 | 95 | 7.3 | 1009.7 | 0.0 | WNW | 5 | 5.8 |
| 17.04.2025 | 20:13 | 8.1 | 95 | 7.3 | 1009.9 | 4.3 | NW | 0 | 6.0 |
| 17.04.2025 | 20:18 | 8.1 | 95 | 7.3 | 1009.9 | 1.8 | NW | 0 | 6.0 |
| 17.04.2025 | 20:23 | 8.1 | 95 | 7.3 | 1010.0 | 0.0 | NW | 0 | 6.0 |
| 17.04.2025 | 20:28 | 8.1 | 95 | 7.3 | 1010.3 | 4.3 | SW | 0 | 6.0 |
| 17.04.2025 | 20:33 | 8.1 | 95 | 7.3 | 1010.4 | 4.3 | SW | 0 | 6.0 |
| 17.04.2025 | 20:38 | 8.1 | 95 | 7.3 | 1010.5 | 4.3 | SW | 0 | 6.0 |
| 17.04.2025 | 20:43 | 8.1 | 95 | 7.3 | 1010.7 | 1.8 | SW | 0 | 6.0 |
| 17.04.2025 | 20:48 | 8.1 | 95 | 7.3 | 1010.8 | 4.3 | SSO | 0 | 6.2 |
| 17.04.2025 | 20:53 | 8.1 | 95 | 7.3 | 1010.9 | 6.1 | S | 0 | 6.2 |
| 17.04.2025 | 20:58 | 8.1 | 95 | 7.3 | 1010.9 | 4.3 | SSW | 0 | 6.2 |
| 17.04.2025 | 21:03 | 8.1 | 95 | 7.3 | 1010.9 | 4.3 | SSW | 0 | 6.2 |
| 17.04.2025 | 21:08 | 8.1 | 96 | 7.5 | 1010.9 | 8.3 | SSW | 0 | 6.2 |
| 17.04.2025 | 21:13 | 8.0 | 96 | 7.4 | 1010.9 | 1.8 | SW | 0 | 6.2 |
| 17.04.2025 | 21:18 | 8.0 | 96 | 7.4 | 1011.0 | 6.1 | SW | 0 | 6.2 |
| 17.04.2025 | 21:23 | 8.0 | 96 | 7.4 | 1011.0 | 1.8 | WSW | 0 | 6.2 |
| 17.04.2025 | 21:28 | 8.0 | 96 | 7.4 | 1011.0 | 8.3 | WSW | 0 | 6.2 |
| 17.04.2025 | 21:33 | 8.0 | 96 | 7.4 | 1010.9 | 1.8 | WSW | 0 | 6.2 |
| 17.04.2025 | 21:38 | 7.9 | 96 | 7.3 | 1011.0 | 6.1 | SW | 0 | 6.2 |
| 17.04.2025 | 21:43 | 7.9 | 96 | 7.3 | 1011.0 | 6.1 | SW | 0 | 6.2 |
| 17.04.2025 | 21:48 | 7.9 | 96 | 7.3 | 1011.0 | 10.4 | SW | 0 | 6.2 |
| 17.04.2025 | 21:53 | 7.9 | 96 | 7.3 | 1011.2 | 4.3 | SSW | 0 | 6.2 |
| 17.04.2025 | 21:58 | 7.9 | 96 | 7.3 | 1011.2 | 4.3 | SW | 0 | 6.2 |
| 17.04.2025 | 22:03 | 7.9 | 96 | 7.3 | 1011.3 | 6.1 | SW | 0 | 6.2 |
| 17.04.2025 | 22:08 | 7.9 | 96 | 7.3 | 1011.4 | 4.3 | SSW | 0 | 6.2 |
| 17.04.2025 | 22:13 | 7.9 | 96 | 7.3 | 1011.3 | 6.1 | S | 0 | 6.2 |
| 17.04.2025 | 22:18 | 7.9 | 96 | 7.3 | 1011.4 | 4.3 | SW | 0 | 6.2 |
| 17.04.2025 | 22:23 | 7.9 | 96 | 7.3 | 1011.4 | 4.3 | SSW | 0 | 6.2 |
| 17.04.2025 | 22:29 | 7.8 | 96 | 7.2 | 1011.5 | 4.3 | SW | 0 | 6.2 |
| 17.04.2025 | 22:34 | 7.8 | 96 | 7.2 | 1011.5 | 8.3 | SW | 0 | 6.2 |
| 17.04.2025 | 22:39 | 7.8 | 96 | 7.2 | 1011.5 | 10.4 | S | 0 | 6.2 |
| 17.04.2025 | 22:44 | 7.8 | 96 | 7.2 | 1011.6 | 8.3 | SSW | 0 | 6.2 |
| 17.04.2025 | 22:49 | 7.8 | 96 | 7.2 | 1011.6 | 10.4 | SW | 0 | 6.2 |
| 17.04.2025 | 22:54 | 7.8 | 96 | 7.2 | 1011.6 | 6.1 | WSW | 0 | 6.2 |
| 17.04.2025 | 22:59 | 7.8 | 96 | 7.2 | 1011.6 | 6.1 | SW | 0 | 6.2 |
| 17.04.2025 | 23:04 | 7.8 | 96 | 7.2 | 1011.7 | 6.1 | SW | 0 | 6.2 |
| 17.04.2025 | 23:09 | 7.8 | 96 | 7.2 | 1011.7 | 8.3 | SSW | 0 | 6.2 |
| 17.04.2025 | 23:14 | 7.8 | 96 | 7.2 | 1011.7 | 1.8 | SW | 0 | 6.2 |
| 17.04.2025 | 23:19 | 7.8 | 96 | 7.2 | 1011.7 | 4.3 | SW | 0 | 6.2 |
| 17.04.2025 | 23:24 | 7.7 | 96 | 7.1 | 1011.7 | 1.8 | SW | 0 | 6.2 |
| 17.04.2025 | 23:29 | 7.8 | 96 | 7.2 | 1011.6 | 8.3 | SW | 0 | 6.2 |
| 17.04.2025 | 23:34 | 7.8 | 96 | 7.2 | 1011.7 | 0.0 | SW | 0 | 6.2 |
| 17.04.2025 | 23:39 | 7.8 | 96 | 7.2 | 1011.7 | 6.1 | SW | 0 | 6.2 |
| 17.04.2025 | 23:44 | 7.8 | 96 | 7.2 | 1011.7 | 4.3 | SW | 0 | 6.2 |
| 17.04.2025 | 23:49 | 7.7 | 96 | 7.1 | 1011.7 | 4.3 | SW | 0 | 6.2 |
| 17.04.2025 | 23:54 | 7.7 | 96 | 7.1 | 1011.7 | 6.1 | SW | 0 | 6.2 |
| 17.04.2025 | 23:59 | 7.7 | 96 | 7.1 | 1011.7 | 1.8 | SW | 0 | 6.2 |